Regional Weather Roundup
Issued by NWS

Home | Current Version | Previous Version | Graphics & Text | Print | Product List | Glossary On
Versions: 1 2 3 4 5 6 7 8 9 10 11 12 13 14 15 16 17 18 19 20 21 22 23 24 25 26 27 28 29 30 31 32 33 34 35 36 37 38 39 40 41 42 43 44 45 46 47 48 49 50
000
ASUS43 KFSD 232310
RWRSD

WEATHER ROUNDUP FOR SOUTH DAKOTA
NATIONAL WEATHER SERVICE SIOUX FALLS SD
600 PM CDT WED AUG 23 2017

NOTE: "FAIR" INDICATES FEW OR NO CLOUDS BELOW 12,000 FEET WITH NO
SIGNIFICANT WEATHER AND/OR OBSTRUCTIONS TO VISIBILITY.


SDZ001>005-009-010-012>017-240000-
NORTHWEST AND NORTH CENTRAL SOUTH DAKOTA

CITY           SKY/WX    TMP DP  RH WIND       PRES   REMARKS
BUFFALO          N/A     89  43  20 CALM      29.90F
FAITH            N/A     84  58  40 E9        29.95F
MOBRIDGE       SUNNY     83  62  49 E10       29.91F
$$

SDZ012>016-024>037-041>051-057-063-072>074-240000-
SOUTHWEST AND SOUTH CENTRAL SOUTH DAKOTA

CITY           SKY/WX    TMP DP  RH WIND       PRES   REMARKS
RAPID CTY ARPT SUNNY     89  47  23 N6        29.95F
PIERRE         SUNNY     85  61  44 E10       29.88F
CUSTER         SUNNY     79  49  34 E13       30.11F
ELLSWORTH AFB  SUNNY     89  47  22 N5        29.95F
PHILIP         SUNNY     95  51  22 N9        29.88F
PINE RIDGE     SUNNY     93  53  25 VRB6      29.94F
SPEARFISH      LGT RAIN  88  45  22 E8G16     30.01F
WINNER         FAIR      88  63  43 S13       29.90F
$$

SDZ004>011-016>023-039-040-240000-
NORTHEAST SOUTH DAKOTA

CITY           SKY/WX    TMP DP  RH WIND       PRES   REMARKS
ABERDEEN       SUNNY     80  60  50 SE15      29.95F
WATERTOWN      SUNNY     75  57  53 SE13      29.99F
BROOKINGS      MOSUNNY   75  60  59 SE9       30.01F
SISSETON         N/A     76  57  51 SE12      29.98F
$$

SDZ017-020-022-023-036>040-048>070-240000-
SOUTHEAST SOUTH DAKOTA

CITY           SKY/WX    TMP DP  RH WIND       PRES   REMARKS
SIOUX FALLS    LGT RAIN  76  60  57 S12       30.00F
HURON          MOSUNNY   79  60  52 SE13      29.94F
CHAMBERLAIN    SUNNY     88  65  46 SE8       29.90F
MITCHELL       SUNNY     81  61  50 SE15      29.95F
YANKTON        SUNNY     78  61  55 S13       29.98F
$$

ABBREVIATIONS USED IN REMARKS
   TC - TEMPERATURE IN CELSIUS
  WCI - WIND CHILL INDEX
   HX - HEAT INDEX
  VSB - VISIBILITY




USA.gov is the U.S. government's official web portal to all federal, state and local government web resources and services.